sat.trackr.live / text

‹ back to catalog

LEMUR-2-LEIA-PHILIP

NORAD 63246 · 2025-052AN

PAYLOAD ACTIVE UNKNOWN

§ Identity

Operator
Country
US
Launch date
2025-03-15
Launch site
AFWTR
Launch vehicle
Mass (kg)
RCS (m²)

Purposes: earth_obs

External: N2YO · Heavens-Above · Gunter

§ Orbital elements

Epoch: 2026-05-25T03:32:00.117312Z

Period
96.18 min
Inclination
97.6859°
Eccentricity
0.0003110
Mean motion
14.97236015 rev/d
Perigee alt
573.3 km
Apogee alt
577.6 km
Semi-major
6,953.6 km
B*
6.5532e-5
RAAN
37.4845°
Arg perigee
326.7080°
Mean anomaly
33.3946°
Rev number
6,522

§ Raw data

LEMUR-2-LEIA-PHILIP1 63246U 25052AN  26145.14722358  .00000701  00000+0  65532-4 0  99972 63246  97.6859  37.4845 0003110 326.7080  33.3946 14.97236015 65220

JSON: /api/v1/satellites/63246 · /tle

For live sub-satellite position, see the globe view (requires WebGL).

§ Visibility from observer

Set your observer location to see the next 7 days of passes ≥ 10°. The values pass through the URL so the page stays shareable.

No JS? Fill the form by hand. The geolocation button needs JavaScript.